Submittal Forms
Current Contests
Recent Contests

Club Activity Tracker - New Providence ARC (from club selection on form)

Recent postings for the selected club or group are listed below. Other than the call used, all calls listed are only those associated with the club or group. Click on a call to see the details of the posting.
Status Key: new=new posting, update=update prior posting, move=change club/group, delete=delete prior posting.

Sort by   for past

TimestampCallContestClassPowerScoreStatus
2024-05-24 02:44:46KC2WUFWRT May 24Single OpLP480new9476
2024-05-20 02:44:12K2ALKing of Spain CWSOSB/40LP70new9461
2024-05-19 14:24:52KC2WUFArQPSOMixedLP270new9463
2024-05-19 14:17:29KC2WUFKing of Spain CWSOABLP84new9461
2024-05-19 03:24:56K2YGArQPSOMixedQRP876new9463
2024-05-19 02:13:22K2ALArQPSOMixedLP464new9463
2024-05-13 02:46:18K2ALVolta RTTYSOAB-6LP3,060new9441
2024-05-12 12:14:01KC2WUFVolta RTTYSOABLP24,396new9441
2024-05-12 03:42:36K2YGVolta RTTYSOABLP40,656new9441
2024-05-12 03:13:23K2YGCPQPSingle OpLP16new9443
 
2024-05-12 03:11:06K2ALCPQPSingle OpLP16new9443
2024-05-10 23:12:40K2ALKRC SST May 10Single OpQRP35new9439
2024-05-10 03:41:41KC2WUFWRT May 10Single OpLP204new9437
2024-05-06 20:26:01KC2WUF7QPSOMixedLP2,835new9422
2024-05-06 17:56:53KC2WUFInQPSingle OpLP680update9423
2024-05-06 17:09:08KC2WUFNewEngQPSingle OpLP2,340new9425
2024-05-06 17:04:05KC2WUFDeQPSingle OpLP240new9424
2024-05-06 00:56:57K2YGInQPSingle OpQRP660new9423
2024-05-06 00:54:14K2YGNewEngQPSingle OpQRP15,792new9425
2024-05-06 00:52:02K2YGDeQPSingle OpQRP3,750new9424
 
2024-05-06 00:47:53K2YG7QPSOMixedQRP22,678new9422
2024-05-06 00:45:02K2ALDeQPSingle OpLP1,120update9424
2024-05-06 00:09:59K2ALNewEngQPSingle OpLP12,288new9425
2024-05-05 17:15:52K2ALInQPSingle OpLP2,146new9423
2024-05-05 17:12:53K2AL7QPSOMixedLP44,955new9422
2024-04-29 03:10:53K2YGSPDX RTTYSOABQRP4,410new9394
2024-04-29 01:19:24K2YGFlQPSOABMixedQRP96,000update9397
2024-04-29 00:57:39KC2WUFSPDX RTTYSOABLP29,760new9394
2024-04-29 00:54:28KC2WUFFlQPSOAB(A)MixedLP2,668new9397
2024-04-29 00:52:55KC2WUFBARTG 75 AprilSingle OpLP140new9399
2024-04-29 00:26:22K2ALFlQPSOAB(A)MixedLP40,320new